STARLINK-11609, 63132

Orbit data source: Space-Track

STARLINK-11609, 63132 is a payload satellite owned by SpaceX/Seattle (US) in LEO that was launched on Mon, 03 Mar 2025 UTC via an FALCON 9 launch vehicle from the Air Force Eastern Test Range (AFETR). Payload-class satellites include a variety of spacecraft equipped with specific instruments for various scientific and technological missions. These include communications satellites like Starlink; space stations such as the ISS; scientific satellites like the Hubble; Earth observation satellites from companies like Planet Labs, Umbra, and HawkEye 360; GPS; miniature CubeSats for education and research; and military/defense satellites.

Loading next visibility...
Identifier
63132, 2025-043A
Orbit
LEO
Country
Flag of USUS
Related business
Manufacturer
SpaceX/Seattle
Mission
Operational Commercial Communications
Bus & Motor
STARLINK V2MD, Unknown motor
Mass
960 kg wet, ~910 kg dry
Launch date (UTC)
2025-03-03 (6 months ago)
Launch vehicle
FALCON 9
Launch site
Air Force Eastern Test Range (AFETR)
Object type
Payload
Rocket body
Debris
Shape & HBR
Box + 2 Pan, 14.5 m
Radar Cross Section
36.964 m², Large (>1 m²)

Expand to show TLE details & history
Last TLE update: 15 hours ago

TLE from 15 hours ago
0 STARLINK-11609
1 63132U 25043A   25258.28110410  .00424751  00000-0  31163-2 0  9997
2 63132  42.9993 228.1368 0004193 273.0295  87.0093 15.71075541 31870
Epoch: 2025-09-15T06:44Z
TLE epoch observation values (Epoch: 2025-09-15T06:44:47.394Z)
Latitude
Longitude
132.45131°
Altitude
355.447 km
Speed
7.698 km/s
True Right ascension
15h 12m 32s
True Declination
0° 00' 00"
Sunlit
Object was in daylight at epoch
Visualization orbit readout
Latitude
Unknown
Longitude
Unknown
Altitude
Unknown
Speed
Unknown
Apparent Right ascension
Unknown
Apparent Declination
Unknown
Sunlit
N/A
Visualization observer readout
Local Sidereal Time
14:43:52
Azimuth
Unknown
Elevation
Unknown
Doppler factor
Unknown
Orbital elements
Apogee altitude
360.628 km
Perigee altitude
354.979 km
Semi-major axis
6,735.941 km
Eccentricity
0.00042
Inclination
42.9993°
RAAN
228.1368°
Arg. of periapsis
273.0295°
True anomaly
87.05728°
Mean anomaly
87.0093°
Eccentric anomaly
87.03329°
Mean motion
3.92596 °/min
Orbital period
91.7 mins
BSTAR
0.0031163
Loading maneuver chart data...
Computing Atmospheric mass density...
Loading historical data...
Loading historical data...
Loading historical data...
Loading historical data...
Loading historical data...
Loading historical data...
Loading historical data...

Documentation

Showing up to 5 results
|